| time (UTC) | temp C | wind direction | speed KPH | gust KPH | rain 1hr cm | rain 24hr cm | rain mn cm | humidity % | barometer mb |
| 20260506203312 | 11 | 19 | 6.4 | 12.9 | 0.00 | 0.00 | 0.00 | 73 | 1012.0 |
| 20260506202811 | 11 | 10 | 6.4 | 12.9 | 0.00 | 0.00 | 0.00 | 72 | 1012.0 |
| 20260506202309 | 11 | 346 | 4.8 | 9.7 | 0.00 | 0.00 | 0.00 | 72 | 1011.9 |
| 20260506201542 | 11 | 10 | 3.2 | 8.0 | 0.00 | 0.00 | 0.00 | 72 | 1011.8 |
| 20260506200810 | 11 | 296 | 3.2 | 4.8 | 0.00 | 0.00 | 0.00 | 72 | 1011.8 |
| 20260506200310 | 12 | 309 | 3.2 | 4.8 | 0.00 | 0.00 | 0.00 | 71 | 1011.8 |
| 20260506195810 | 12 | 309 | 1.6 | 6.4 | 0.00 | 0.00 | 0.00 | 70 | 1011.8 |
| 20260506195311 | 12 | 311 | 0.0 | 6.4 | 0.00 | 0.00 | 0.00 | 69 | 1011.7 |
| 20260506194809 | 12 | 313 | 0.0 | 0.0 | 0.00 | 0.00 | 0.00 | 69 | 1011.6 |
| 20260506194311 | 12 | 355 | 0.0 | 0.0 | 0.00 | 0.00 | 0.00 | 67 | 1011.6 |
| 20260506193306 | 12 | 333 | 3.2 | 8.0 | 0.00 | 0.00 | 0.00 | 67 | 1011.7 |
| 20260506192807 | 12 | 26 | 3.2 | 8.0 | 0.00 | 0.00 | 0.00 | 68 | 1011.7 |
| 20260506191808 | 12 | 34 | 1.6 | 4.8 | 0.00 | 0.00 | 0.00 | 67 | 1011.5 |
| 20260506191531 | 12 | 35 | 1.6 | 4.8 | 0.00 | 0.00 | 0.00 | 67 | 1011.5 |
| 20260506190801 | 12 | 355 | 1.6 | 6.4 | 0.00 | 0.00 | 0.00 | 67 | 1011.3 |
| 20260506190301 | 12 | 19 | 1.6 | 6.4 | 0.00 | 0.00 | 0.00 | 67 | 1011.3 |
| 20260506185801 | 12 | 37 | 0.0 | 4.8 | 0.00 | 0.00 | 0.00 | 67 | 1011.1 |
| 20260506185531 | 12 | 5 | 1.6 | 4.8 | 0.00 | 0.00 | 0.00 | 67 | 1011.2 |
| 20260506184801 | 12 | 0 | 1.6 | 4.8 | 0.00 | 0.00 | 0.00 | 66 | 1011.1 |
| 20260506184302 | 12 | 65 | 3.2 | 4.8 | 0.00 | 0.00 | 0.00 | 66 | 1011.0 |
| 20260506183801 | 12 | 44 | 3.2 | 6.4 | 0.00 | 0.00 | 0.00 | 66 | 1010.9 |
| 20260506183301 | 12 | 74 | 3.2 | 6.4 | 0.00 | 0.00 | 0.00 | 65 | 1010.9 |
| 20260506182255 | 12 | 55 | 1.6 | 4.8 | 0.00 | 0.00 | 0.00 | 65 | 1010.8 |
| 20260506181754 | 12 | 58 | 1.6 | 4.8 | 0.00 | 0.00 | 0.00 | 65 | 1010.7 |
| 20260506181254 | 12 | 101 | 1.6 | 4.8 | 0.00 | 0.00 | 0.00 | 64 | 1010.7 |
| 20260506180750 | 12 | 64 | 1.6 | 4.8 | 0.00 | 0.00 | 0.00 | 64 | 1010.6 |
| 20260506180251 | 12 | 76 | 1.6 | 4.8 | 0.00 | 0.00 | 0.00 | 64 | 1010.6 |
| 20260506175750 | 12 | 81 | 1.6 | 4.8 | 0.00 | 0.00 | 0.00 | 63 | 1010.6 |
| 20260506175251 | 12 | 69 | 3.2 | 8.0 | 0.00 | 0.00 | 0.00 | 64 | 1010.4 |
| 20260506174747 | 12 | 55 | 3.2 | 8.0 | 0.00 | 0.00 | 0.00 | 63 | 1010.4 |
| 20260506174247 | 12 | 49 | 3.2 | 11.3 | 0.00 | 0.00 | 0.00 | 63 | 1010.4 |
| 20260506173749 | 12 | 58 | 4.8 | 11.3 | 0.00 | 0.00 | 0.00 | 63 | 1010.3 |
| 20260506173247 | 12 | 90 | 3.2 | 11.3 | 0.00 | 0.00 | 0.00 | 63 | 1010.2 |
| 20260506172747 | 12 | 61 | 3.2 | 11.3 | 0.00 | 0.00 | 0.00 | 62 | 1010.2 |
| 20260506172248 | 12 | 103 | 3.2 | 11.3 | 0.00 | 0.00 | 0.00 | 62 | 1010.1 |
| 20260506171740 | 12 | 76 | 4.8 | 11.3 | 0.00 | 0.00 | 0.00 | 62 | 1010.0 |
| 20260506171239 | 12 | 61 | 4.8 | 12.9 | 0.00 | 0.00 | 0.00 | 62 | 1010.1 |
| 20260506170740 | 12 | 71 | 4.8 | 12.9 | 0.00 | 0.00 | 0.00 | 62 | 1010.0 |
| 20260506170238 | 12 | 95 | 4.8 | 12.9 | 0.00 | 0.00 | 0.00 | 62 | 1010.0 |
| 20260506165737 | 12 | 93 | 4.8 | 12.9 | 0.00 | 0.00 | 0.00 | 62 | 1010.0 |
| 20260506165238 | 12 | 99 | 6.4 | 14.5 | 0.00 | 0.00 | 0.00 | 62 | 1010.0 |
| 20260506164736 | 12 | 81 | 6.4 | 14.5 | 0.00 | 0.00 | 0.00 | 62 | 1010.0 |
| 20260506164239 | 12 | 93 | 6.4 | 16.1 | 0.00 | 0.00 | 0.00 | 62 | 1010.0 |
| 20260506163737 | 12 | 136 | 8.0 | 16.1 | 0.00 | 0.00 | 0.00 | 62 | 1010.1 |
| 20260506163508 | 13 | 17 | 9.7 | 17.7 | 0.00 | 0.00 | 0.00 | 61 | 1010.1 |
| 20260506162738 | 13 | 67 | 8.0 | 17.7 | 0.00 | 0.00 | 0.00 | 61 | 1010.1 |
| 20260506162237 | 13 | 99 | 8.0 | 19.3 | 0.00 | 0.00 | 0.00 | 61 | 1010.1 |
| 20260506161737 | 13 | 70 | 8.0 | 19.3 | 0.00 | 0.00 | 0.00 | 61 | 1010.0 |
| 20260506161237 | 13 | 80 | 9.7 | 19.3 | 0.00 | 0.00 | 0.00 | 60 | 1010.1 |
| 20260506160737 | 13 | 96 | 8.0 | 19.3 | 0.00 | 0.00 | 0.00 | 60 | 1010.1 |
| 20260506160237 | 13 | 96 | 6.4 | 19.3 | 0.00 | 0.00 | 0.00 | 60 | 1010.1 |
| 20260506155734 | 13 | 73 | 8.0 | 16.1 | 0.00 | 0.00 | 0.00 | 60 | 1010.1 |
| 20260506155233 | 13 | 50 | 8.0 | 16.1 | 0.00 | 0.00 | 0.00 | 59 | 1010.1 |
| 20260506154732 | 13 | 38 | 6.4 | 17.7 | 0.00 | 0.00 | 0.00 | 60 | 1010.0 |
| 20260506154233 | 13 | 66 | 6.4 | 17.7 | 0.00 | 0.00 | 0.00 | 60 | 1010.0 |
| 20260506153733 | 13 | 84 | 6.4 | 19.3 | 0.00 | 0.00 | 0.00 | 61 | 1010.1 |
| 20260506153232 | 12 | 36 | 8.0 | 19.3 | 0.00 | 0.00 | 0.00 | 60 | 1010.0 |
| 20260506152734 | 12 | 97 | 9.7 | 17.7 | 0.00 | 0.00 | 0.00 | 60 | 1010.0 |
| 20260506152233 | 12 | 59 | 11.3 | 19.3 | 0.00 | 0.00 | 0.00 | 59 | 1010.0 |
| 20260506151733 | 12 | 339 | 9.7 | 19.3 | 0.00 | 0.00 | 0.00 | 60 | 1009.9 |
| 20260506151232 | 12 | 28 | 9.7 | 19.3 | 0.00 | 0.00 | 0.00 | 61 | 1010.0 |
| 20260506150735 | 12 | 104 | 8.0 | 19.3 | 0.00 | 0.00 | 0.00 | 61 | 1009.9 |
| 20260506150229 | 12 | 20 | 8.0 | 19.3 | 0.00 | 0.00 | 0.00 | 61 | 1009.9 |
| 20260506145727 | 13 | 72 | 9.7 | 19.3 | 0.00 | 0.00 | 0.00 | 60 | 1009.9 |
| 20260506145457 | 13 | 84 | 9.7 | 19.3 | 0.00 | 0.00 | 0.00 | 61 | 1009.9 |
| 20260506144500 | 13 | 98 | 9.7 | 22.5 | 0.00 | 0.00 | 0.00 | 61 | 1009.9 |
| 20260506143728 | 13 | 64 | 11.3 | 22.5 | 0.00 | 0.00 | 0.00 | 60 | 1009.9 |
| 20260506143227 | 13 | 65 | 11.3 | 25.7 | 0.00 | 0.00 | 0.00 | 59 | 1009.8 |
| 20260506142724 | 13 | 35 | 12.9 | 25.7 | 0.00 | 0.00 | 0.00 | 59 | 1009.8 |
| 20260506142225 | 13 | 73 | 14.5 | 25.7 | 0.00 | 0.00 | 0.00 | 58 | 1009.8 |
| 20260506141724 | 13 | 55 | 12.9 | 27.4 | 0.00 | 0.00 | 0.00 | 57 | 1009.7 |
| 20260506141456 | 13 | 338 | 11.3 | 27.4 | 0.00 | 0.00 | 0.00 | 58 | 1009.8 |
| 20260506140724 | 13 | 13 | 12.9 | 24.1 | 0.00 | 0.00 | 0.00 | 57 | 1009.7 |
| 20260506140222 | 13 | 53 | 12.9 | 24.1 | 0.00 | 0.00 | 0.00 | 56 | 1009.8 |
| 20260506135722 | 13 | 86 | 11.3 | 25.7 | 0.00 | 0.00 | 0.00 | 56 | 1009.7 |
| 20260506135222 | 13 | 69 | 11.3 | 25.7 | 0.00 | 0.00 | 0.00 | 56 | 1009.7 |
| 20260506134720 | 13 | 80 | 11.3 | 25.7 | 0.00 | 0.00 | 0.00 | 54 | 1009.6 |
| 20260506134222 | 13 | 81 | 11.3 | 25.7 | 0.00 | 0.00 | 0.00 | 54 | 1009.6 |
| 20260506133721 | 14 | 51 | 11.3 | 25.7 | 0.00 | 0.00 | 0.00 | 54 | 1009.5 |
| 20260506133221 | 14 | 64 | 9.7 | 25.7 | 0.00 | 0.00 | 0.00 | 54 | 1009.4 |
| 20260506132722 | 14 | 19 | 9.7 | 24.1 | 0.00 | 0.00 | 0.00 | 55 | 1009.5 |
| 20260506132222 | 14 | 27 | 11.3 | 24.1 | 0.00 | 0.00 | 0.00 | 53 | 1009.5 |
| 20260506131721 | 14 | 10 | 8.0 | 20.9 | 0.00 | 0.00 | 0.00 | 55 | 1009.4 |
| 20260506131220 | 14 | 355 | 6.4 | 17.7 | 0.00 | 0.00 | 0.00 | 57 | 1009.4 |
| 20260506130721 | 14 | 13 | 6.4 | 19.3 | 0.00 | 0.00 | 0.00 | 59 | 1009.4 |
| 20260506130452 | 13 | 311 | 8.0 | 19.3 | 0.00 | 0.00 | 0.00 | 60 | 1009.3 |
| 20260506125714 | 13 | 332 | 9.7 | 19.3 | 0.00 | 0.00 | 0.00 | 60 | 1009.2 |
| 20260506125207 | 13 | 74 | 9.7 | 19.3 | 0.00 | 0.00 | 0.00 | 60 | 1009.4 |
| 20260506124707 | 13 | 315 | 9.7 | 19.3 | 0.00 | 0.00 | 0.00 | 65 | 1009.3 |
| 20260506124208 | 13 | 317 | 9.7 | 19.3 | 0.00 | 0.00 | 0.00 | 66 | 1009.1 |
| 20260506123707 | 13 | 320 | 8.0 | 16.1 | 0.00 | 0.00 | 0.00 | 67 | 1009.2 |
| 20260506123207 | 13 | 307 | 8.0 | 16.1 | 0.00 | 0.00 | 0.00 | 68 | 1009.2 |
| 20260506122708 | 12 | 344 | 8.0 | 16.1 | 0.00 | 0.00 | 0.00 | 68 | 1009.1 |
| 20260506122207 | 13 | 15 | 8.0 | 16.1 | 0.00 | 0.00 | 0.00 | 68 | 1009.1 |
| 20260506121708 | 13 | 323 | 9.7 | 17.7 | 0.00 | 0.00 | 0.00 | 69 | 1009.2 |
| 20260506121202 | 13 | 5 | 9.7 | 17.7 | 0.00 | 0.00 | 0.00 | 69 | 1009.1 |
| 20260506120935 | 13 | 336 | 9.7 | 20.9 | 0.00 | 0.00 | 0.00 | 70 | 1009.1 |
| 20260506120204 | 13 | 350 | 9.7 | 20.9 | 0.00 | 0.00 | 0.00 | 70 | 1009.1 |
| 20260506115702 | 13 | 339 | 9.7 | 19.3 | 0.00 | 0.00 | 0.00 | 71 | 1009.0 |
| 20260506115156 | 13 | 355 | 11.3 | 19.3 | 0.00 | 0.00 | 0.00 | 71 | 1009.0 |
| 20260506114415 | 13 | 313 | 12.9 | 22.5 | 0.00 | 0.00 | 0.00 | 70 | 1009.1 |
| 20260506113644 | 13 | 306 | 12.9 | 22.5 | 0.00 | 0.00 | 0.00 | 70 | 1009.1 |
| 20260506113417 | 13 | 332 | 12.9 | 22.5 | 0.00 | 0.00 | 0.00 | 71 | 1009.1 |
| 20260506112647 | 13 | 5 | 11.3 | 20.9 | 0.00 | 0.00 | 0.00 | 71 | 1009.1 |
| 20260506112144 | 13 | 336 | 9.7 | 19.3 | 0.00 | 0.00 | 0.00 | 69 | 1009.1 |
| 20260506111645 | 13 | 347 | 9.7 | 19.3 | 0.00 | 0.00 | 0.00 | 69 | 1009.1 |
| 20260506111159 | 13 | 328 | 11.3 | 20.9 | 0.00 | 0.00 | 0.00 | 70 | 1009.0 |
| 20260506110644 | 14 | 329 | 12.9 | 20.9 | 0.00 | 0.00 | 0.00 | 67 | 1009.0 |
| 20260506110144 | 14 | 5 | 12.9 | 25.7 | 0.00 | 0.00 | 0.00 | 66 | 1008.9 |
| 20260506105644 | 14 | 344 | 14.5 | 25.7 | 0.00 | 0.00 | 0.00 | 66 | 1009.0 |
| 20260506105147 | 15 | 350 | 12.9 | 24.1 | 0.00 | 0.00 | 0.00 | 62 | 1008.9 |
| 20260506104643 | 15 | 331 | 11.3 | 22.5 | 0.00 | 0.00 | 0.00 | 60 | 1008.9 |
| 20260506104145 | 15 | 34 | 11.3 | 19.3 | 0.00 | 0.00 | 0.00 | 59 | 1008.8 |
| 20260506103640 | 15 | 333 | 11.3 | 25.7 | 0.00 | 0.00 | 0.00 | 54 | 1008.8 |
| 20260506103140 | 15 | 323 | 12.9 | 29.0 | 0.00 | 0.00 | 0.00 | 54 | 1008.8 |
| 20260506102911 | 15 | 5 | 12.9 | 29.0 | 0.00 | 0.00 | 0.00 | 55 | 1008.8 |
| 20260506102140 | 15 | 22 | 12.9 | 24.1 | 0.00 | 0.00 | 0.00 | 57 | 1008.7 |
| 20260506101640 | 15 | 90 | 14.5 | 22.5 | 0.00 | 0.00 | 0.00 | 57 | 1008.8 |
| 20260506101142 | 15 | 63 | 12.9 | 22.5 | 0.00 | 0.00 | 0.00 | 57 | 1008.8 |
| 20260506100640 | 15 | 21 | 11.3 | 22.5 | 0.00 | 0.00 | 0.00 | 60 | 1008.8 |
| 20260506100154 | 15 | 311 | 11.3 | 24.1 | 0.00 | 0.00 | 0.00 | 61 | 1008.7 |
| 20260506095910 | 15 | 351 | 11.3 | 24.1 | 0.00 | 0.00 | 0.00 | 60 | 1008.6 |
| 20260506095411 | 15 | 5 | 12.9 | 25.7 | 0.00 | 0.00 | 0.00 | 60 | 1008.7 |
| 20260506094640 | 15 | 5 | 11.3 | 25.7 | 0.00 | 0.00 | 0.00 | 61 | 1008.6 |
| 20260506094139 | 15 | 38 | 11.3 | 27.4 | 0.00 | 0.00 | 0.00 | 61 | 1008.7 |
| 20260506093636 | 15 | 38 | 11.3 | 27.4 | 0.00 | 0.00 | 0.00 | 62 | 1008.6 |
| 20260506093136 | 14 | 67 | 11.3 | 29.0 | 0.00 | 0.00 | 0.00 | 64 | 1008.6 |
| 20260506092635 | 14 | 74 | 11.3 | 29.0 | 0.00 | 0.00 | 0.00 | 63 | 1008.6 |
| 20260506092134 | 14 | 28 | 9.7 | 22.5 | 0.00 | 0.00 | 0.00 | 66 | 1008.6 |
| 20260506091636 | 14 | 355 | 11.3 | 20.9 | 0.00 | 0.00 | 0.00 | 65 | 1008.5 |
| 20260506091134 | 14 | 318 | 12.9 | 29.0 | 0.00 | 0.00 | 0.00 | 65 | 1008.5 |
| 20260506090634 | 14 | 21 | 12.9 | 29.0 | 0.00 | 0.00 | 0.00 | 64 | 1008.4 |
| 20260506090147 | 13 | 22 | 12.9 | 24.1 | 0.00 | 0.00 | 0.00 | 66 | 1008.4 |
| 20260506085905 | 13 | 24 | 12.9 | 25.7 | 0.00 | 0.00 | 0.00 | 66 | 1008.4 |
| 20260506085135 | 13 | 328 | 12.9 | 25.7 | 0.00 | 0.00 | 0.00 | 67 | 1008.3 |
| 20260506084635 | 13 | 334 | 11.3 | 27.4 | 0.00 | 0.00 | 0.00 | 67 | 1008.4 |
| 20260506084135 | 13 | 13 | 11.3 | 27.4 | 0.00 | 0.00 | 0.00 | 68 | 1008.4 |
| 20260506083632 | 13 | 342 | 12.9 | 22.5 | 0.00 | 0.00 | 0.00 | 69 | 1008.3 |
| 20260506083402 | 13 | 28 | 12.9 | 22.5 | 0.00 | 0.00 | 0.00 | 69 | 1008.3 |
| 20260506082631 | 13 | 317 | 11.3 | 20.9 | 0.00 | 0.00 | 0.00 | 71 | 1008.3 |
| 20260506082131 | 13 | 355 | 12.9 | 22.5 | 0.00 | 0.00 | 0.00 | 71 | 1008.3 |
| 20260506081131 | 13 | 0 | 11.3 | 22.5 | 0.00 | 0.00 | 0.00 | 77 | 1008.2 |
| 20260506080630 | 13 | 5 | 12.9 | 22.5 | 0.00 | 0.00 | 0.00 | 79 | 1008.2 |
| 20260506080412 | 13 | 0 | 12.9 | 24.1 | 0.00 | 0.00 | 0.00 | 79 | 1008.2 |
| 20260506073125 | 11 | 9 | 11.3 | 20.9 | 0.00 | 0.00 | 0.00 | 82 | 1008.2 |
| 20260506072625 | 11 | 0 | 11.3 | 22.5 | 0.00 | 0.00 | 0.00 | 83 | 1008.3 |
| 20260506071627 | 11 | 5 | 9.7 | 20.9 | 0.00 | 0.00 | 0.00 | 83 | 1008.2 |
| 20260506071127 | 11 | 331 | 11.3 | 20.9 | 0.00 | 0.00 | 0.00 | 84 | 1008.2 |
| 20260506070628 | 11 | 0 | 11.3 | 20.9 | 0.00 | 0.00 | 0.00 | 83 | 1008.2 |
| 20260506070125 | 11 | 333 | 11.3 | 20.9 | 0.00 | 0.00 | 0.00 | 83 | 1008.1 |
| 20260506062120 | 10 | 350 | 9.7 | 17.7 | 0.00 | 0.00 | 0.00 | 85 | 1007.9 |
| 20260506061119 | 10 | 331 | 9.7 | 19.3 | 0.00 | 0.00 | 0.00 | 86 | 1007.8 |
| 20260506060621 | 10 | 325 | 8.0 | 16.1 | 0.00 | 0.00 | 0.00 | 86 | 1007.9 |
| 20260506060121 | 10 | 317 | 8.0 | 16.1 | 0.00 | 0.00 | 0.00 | 87 | 1007.9 |
| 20260506051116 | 10 | 329 | 6.4 | 12.9 | 0.00 | 0.00 | 0.00 | 88 | 1008.0 |
| 20260506050611 | 10 | 296 | 6.4 | 14.5 | 0.00 | 0.00 | 0.00 | 88 | 1008.0 |
| 20260506050114 | 10 | 329 | 6.4 | 14.5 | 0.00 | 0.00 | 0.00 | 88 | 1008.0 |
| 20260506045110 | 10 | 333 | 6.4 | 14.5 | 0.00 | 0.00 | 0.00 | 87 | 1008.0 |
| 20260506044608 | 10 | 344 | 6.4 | 14.5 | 0.00 | 0.00 | 0.00 | 86 | 1007.9 |
| 20260506044059 | 10 | 349 | 6.4 | 12.9 | 0.00 | 0.00 | 0.00 | 86 | 1008.0 |
| 20260506043553 | 9 | 311 | 6.4 | 14.5 | 0.00 | 0.00 | 0.00 | 86 | 1008.1 |
| 20260506043320 | 9 | 329 | 4.8 | 14.5 | 0.00 | 0.00 | 0.00 | 86 | 1008.1 |
| 20260506042544 | 9 | 355 | 4.8 | 11.3 | 0.00 | 0.00 | 0.00 | 86 | 1008.0 |
| 20260506042044 | 9 | 23 | 6.4 | 12.9 | 0.00 | 0.00 | 0.00 | 85 | 1008.0 |
| 20260506041544 | 9 | 355 | 6.4 | 12.9 | 0.00 | 0.00 | 0.00 | 86 | 1008.1 |
| 20260506041044 | 9 | 328 | 6.4 | 16.1 | 0.00 | 0.00 | 0.00 | 85 | 1008.1 |
| 20260506040543 | 9 | 0 | 6.4 | 16.1 | 0.00 | 0.00 | 0.00 | 85 | 1008.0 |
| 20260506040057 | 9 | 327 | 8.0 | 17.7 | 0.00 | 0.00 | 0.00 | 85 | 1008.1 |
| 20260506035815 | 9 | 311 | 9.7 | 19.3 | 0.00 | 0.00 | 0.00 | 85 | 1008.1 |
| 20260506035043 | 9 | 0 | 9.7 | 19.3 | 0.00 | 0.00 | 0.00 | 85 | 1008.2 |
| 20260506034544 | 9 | 15 | 8.0 | 17.7 | 0.00 | 0.00 | 0.00 | 85 | 1008.2 |
| 20260506034043 | 9 | 347 | 8.0 | 17.7 | 0.00 | 0.00 | 0.00 | 84 | 1008.2 |
| 20260506033543 | 10 | 51 | 8.0 | 20.9 | 0.00 | 0.00 | 0.00 | 84 | 1008.3 |
| 20260506033312 | 10 | 11 | 8.0 | 20.9 | 0.00 | 0.00 | 0.00 | 83 | 1008.2 |
| 20260506032306 | 10 | 343 | 8.0 | 19.3 | 0.00 | 0.00 | 0.00 | 83 | 1008.3 |
| 20260506031535 | 10 | 10 | 9.7 | 19.3 | 0.00 | 0.00 | 0.00 | 83 | 1008.3 |
| 20260506031033 | 10 | 333 | 9.7 | 19.3 | 0.00 | 0.00 | 0.00 | 83 | 1008.4 |
| 20260506030531 | 10 | 335 | 9.7 | 17.7 | 0.00 | 0.00 | 0.00 | 82 | 1008.4 |
| 20260506030031 | 10 | 333 | 8.0 | 17.7 | 0.00 | 0.00 | 0.00 | 82 | 1008.3 |
| 20260506025531 | 10 | 11 | 6.4 | 20.9 | 0.00 | 0.00 | 0.00 | 82 | 1008.5 |
| 20260506025305 | 10 | 30 | 8.0 | 20.9 | 0.00 | 0.00 | 0.00 | 82 | 1008.5 |
| 20260506024531 | 10 | 305 | 9.7 | 20.9 | 0.00 | 0.00 | 0.00 | 82 | 1008.5 |
| 20260506024033 | 10 | 16 | 8.0 | 20.9 | 0.00 | 0.00 | 0.00 | 82 | 1008.6 |
| 20260506023531 | 10 | 61 | 9.7 | 19.3 | 0.00 | 0.00 | 0.00 | 82 | 1008.6 |
| 20260506023032 | 10 | 288 | 11.3 | 19.3 | 0.00 | 0.00 | 0.00 | 81 | 1008.6 |
| 20260506022531 | 10 | 71 | 9.7 | 19.3 | 0.00 | 0.00 | 0.00 | 81 | 1008.5 |
| 20260506022032 | 10 | 14 | 9.7 | 19.3 | 0.00 | 0.00 | 0.00 | 81 | 1008.5 |
| 20260506021802 | 10 | 329 | 11.3 | 20.9 | 0.00 | 0.00 | 0.00 | 81 | 1008.4 |
| 20260506021258 | 10 | 334 | 9.7 | 20.9 | 0.00 | 0.00 | 0.00 | 80 | 1008.4 |
| 20260506020527 | 10 | 329 | 8.0 | 16.1 | 0.00 | 0.00 | 0.00 | 82 | 1008.4 |
| 20260506020027 | 10 | 342 | 8.0 | 19.3 | 0.00 | 0.00 | 0.00 | 82 | 1008.4 |
| 20260506015527 | 10 | 334 | 6.4 | 19.3 | 0.00 | 0.00 | 0.00 | 84 | 1008.5 |
| 20260506015027 | 10 | 351 | 4.8 | 12.9 | 0.00 | 0.00 | 0.00 | 84 | 1008.4 |
| 20260506014527 | 10 | 311 | 6.4 | 12.9 | 0.00 | 0.00 | 0.00 | 84 | 1008.5 |
| 20260506014025 | 10 | 0 | 6.4 | 9.7 | 0.00 | 0.00 | 0.00 | 84 | 1008.5 |
| 20260506013532 | 10 | 341 | 4.8 | 9.7 | 0.00 | 0.00 | 0.00 | 84 | 1008.5 |
| 20260506013025 | 10 | 17 | 6.4 | 11.3 | 0.00 | 0.00 | 0.00 | 84 | 1008.5 |
| 20260506012525 | 10 | 329 | 6.4 | 14.5 | 0.00 | 0.00 | 0.00 | 84 | 1008.5 |
| 20260506012027 | 9 | 355 | 6.4 | 14.5 | 0.00 | 0.00 | 0.00 | 84 | 1008.6 |
| 20260506011525 | 10 | 351 | 6.4 | 14.5 | 0.00 | 0.00 | 0.00 | 84 | 1008.6 |
| 20260506011025 | 9 | 340 | 6.4 | 12.9 | 0.00 | 0.00 | 0.00 | 84 | 1008.6 |
| 20260506010519 | 9 | 337 | 6.4 | 12.9 | 0.00 | 0.00 | 0.00 | 84 | 1008.7 |
| 20260506010011 | 9 | 309 | 4.8 | 12.9 | 0.00 | 0.00 | 0.00 | 84 | 1008.7 |
| 20260506005509 | 9 | 322 | 4.8 | 12.9 | 0.00 | 0.00 | 0.00 | 84 | 1008.7 |
| 20260506004511 | 9 | 12 | 6.4 | 12.9 | 0.00 | 0.00 | 0.00 | 83 | 1008.9 |
| 20260506004011 | 9 | 298 | 6.4 | 12.9 | 0.00 | 0.00 | 0.00 | 83 | 1009.1 |
| 20260506003509 | 9 | 290 | 6.4 | 12.9 | 0.00 | 0.00 | 0.00 | 83 | 1009.0 |
| 20260506003011 | 10 | 355 | 6.4 | 12.9 | 0.00 | 0.00 | 0.00 | 83 | 1009.0 |
| 20260506002509 | 10 | 309 | 6.4 | 12.9 | 0.00 | 0.00 | 0.00 | 82 | 1008.9 |
| 20260506002009 | 10 | 311 | 6.4 | 12.9 | 0.00 | 0.00 | 0.00 | 82 | 1009.1 |
| 20260506001514 | 10 | 332 | 6.4 | 12.9 | 0.00 | 0.00 | 0.00 | 82 | 1009.1 |
| 20260506001242 | 10 | 311 | 6.4 | 14.5 | 0.00 | 0.00 | 0.00 | 82 | 1009.1 |
| 20260506000742 | 10 | 355 | 8.0 | 14.5 | 0.00 | 0.00 | 0.00 | 82 | 1009.3 |
| 20260506000000 | 10 | 14 | 8.0 | 14.5 | 0.00 | 0.00 | 0.00 | 81 | 1009.1 |
| 20260505235453 | 10 | 350 | 8.0 | 14.5 | 0.00 | 0.00 | 0.00 | 81 | 1009.2 |
| 20260505234948 | 10 | 355 | 8.0 | 17.7 | 0.00 | 0.00 | 0.00 | 81 | 1009.2 |
| 20260505234448 | 10 | 355 | 8.0 | 17.7 | 0.00 | 0.00 | 0.00 | 81 | 1009.3 |
| 20260505233949 | 10 | 335 | 8.0 | 14.5 | 0.00 | 0.00 | 0.00 | 80 | 1009.3 |
| 20260505233449 | 10 | 355 | 9.7 | 14.5 | 0.00 | 0.00 | 0.00 | 80 | 1009.3 |
| 20260505232950 | 10 | 336 | 9.7 | 22.5 | 0.00 | 0.00 | 0.00 | 80 | 1009.3 |
| 20260505232447 | 10 | 340 | 9.7 | 22.5 | 0.00 | 0.00 | 0.00 | 80 | 1009.4 |
| 20260505232219 | 10 | 305 | 8.0 | 17.7 | 0.00 | 0.00 | 0.00 | 80 | 1009.4 |
| 20260505231717 | 10 | 332 | 8.0 | 16.1 | 0.00 | 0.00 | 0.00 | 80 | 1009.4 |
| 20260505230947 | 10 | 313 | 8.0 | 16.1 | 0.00 | 0.00 | 0.00 | 80 | 1009.5 |
| 20260505230501 | 10 | 348 | 8.0 | 16.1 | 0.00 | 0.00 | 0.00 | 79 | 1009.5 |
| 20260505225447 | 9 | 342 | 8.0 | 14.5 | 0.00 | 0.00 | 0.00 | 80 | 1009.6 |
| 20260505224943 | 9 | 28 | 6.4 | 12.9 | 0.00 | 0.00 | 0.00 | 80 | 1009.6 |
| 20260505223941 | 9 | 318 | 4.8 | 11.3 | 0.00 | 0.00 | 0.00 | 80 | 1009.6 |
| 20260505223439 | 9 | 11 | 4.8 | 9.7 | 0.00 | 0.00 | 0.00 | 81 | 1009.6 |
| 20260505222939 | 9 | 355 | 4.8 | 9.7 | 0.00 | 0.00 | 0.00 | 81 | 1009.7 |
| 20260505222439 | 9 | 0 | 4.8 | 11.3 | 0.00 | 0.00 | 0.00 | 81 | 1009.7 |
| 20260505221940 | 9 | 338 | 4.8 | 11.3 | 0.00 | 0.00 | 0.00 | 81 | 1009.7 |
| 20260505221439 | 9 | 355 | 4.8 | 8.0 | 0.00 | 0.00 | 0.00 | 81 | 1009.7 |
| 20260505220939 | 9 | 342 | 4.8 | 9.7 | 0.00 | 0.00 | 0.00 | 81 | 1009.8 |
| 20260505220441 | 9 | 5 | 4.8 | 9.7 | 0.00 | 0.00 | 0.00 | 81 | 1009.8 |
| 20260505215938 | 9 | 355 | 3.2 | 8.0 | 0.00 | 0.00 | 0.00 | 81 | 1009.9 |
| 20260505215438 | 9 | 319 | 4.8 | 8.0 | 0.00 | 0.00 | 0.00 | 81 | 1009.9 |
| 20260505214938 | 9 | 338 | 4.8 | 8.0 | 0.00 | 0.00 | 0.00 | 81 | 1009.9 |
| 20260505214439 | 9 | 339 | 4.8 | 11.3 | 0.00 | 0.00 | 0.00 | 80 | 1009.9 |
| 20260505213940 | 9 | 338 | 6.4 | 11.3 | 0.00 | 0.00 | 0.00 | 80 | 1009.9 |
| 20260505213437 | 10 | 335 | 6.4 | 9.7 | 0.00 | 0.00 | 0.00 | 80 | 1010.0 |
| 20260505212938 | 10 | 336 | 6.4 | 12.9 | 0.00 | 0.00 | 0.00 | 79 | 1009.9 |
| 20260505212438 | 10 | 335 | 6.4 | 12.9 | 0.00 | 0.00 | 0.00 | 79 | 1010.0 |
| 20260505211939 | 10 | 10 | 8.0 | 14.5 | 0.00 | 0.00 | 0.00 | 79 | 1009.9 |
| 20260505211432 | 10 | 338 | 8.0 | 16.1 | 0.00 | 0.00 | 0.00 | 79 | 1009.9 |
| 20260505210932 | 10 | 332 | 8.0 | 16.1 | 0.00 | 0.00 | 0.00 | 78 | 1010.0 |
| 20260505210433 | 10 | 323 | 8.0 | 16.1 | 0.00 | 0.00 | 0.00 | 78 | 1010.0 |
| 20260505205931 | 10 | 355 | 8.0 | 17.7 | 0.00 | 0.00 | 0.00 | 78 | 1010.0 |
| 20260505205430 | 10 | 330 | 8.0 | 17.7 | 0.00 | 0.00 | 0.00 | 78 | 1010.0 |
| 20260505204930 | 10 | 5 | 8.0 | 17.7 | 0.00 | 0.00 | 0.00 | 78 | 1010.0 |
| 20260505204432 | 10 | 0 | 9.7 | 17.7 | 0.00 | 0.00 | 0.00 | 78 | 1010.1 |